STARLINK-34784

Last updated on Thu Oct 02 2025 00:02:05 GMT+0000 (Coordinated Universal Time)

1 65458U 25195A 25274.44628230 .00076914 00000+0 19123-2 0 9993 2 65458 53.1597 281.3472 0001532 96.6101 263.5078 15.39638505 5563
UTC large
Height (km)
Speed (km/s)
/
Latitude / Longitude
Inclination (degrees)
Orbital Period (minutes)
Azimuth
Elevation
Range (km)
Doppler Factor

Next 0 passes for location: London (51.5072 / 0.1276)

Sorry there are no passes over London.
STARLINK-34784